Printer-friendly version

IAU Minor Planet Center

Minor Planet Center

MPEC 2001-U34: 2001 TP103

The following Minor Planet Electronic Circular may be linked-to from your own Web pages, but must not otherwise be redistributed electronically.


Read MPEC 2001-U33 Read MPEC 2001-U35


M.P.E.C. 2001-U34                                Issued 2001 Oct. 22, 17:51 UT

     The Minor Planet Electronic Circulars contain information on unusual
         minor planets and routine data on comets.  They are published
   on behalf of Commission 20 of the International Astronomical Union by the
          Minor Planet Center, Smithsonian Astrophysical Observatory,
                          Cambridge, MA 02138, U.S.A.

             Prepared using the Tamkin Foundation Computer Network

                              MPC@CFA.HARVARD.EDU
          URL http://cfa-www.harvard.edu/iau/mpc.html  ISSN 1523-6714

                                  2001 TP103

Observations:
     K01TA3P* C2001 10 14.24943 01 35 08.33 +15 18 29.6          19.3        704
     K01TA3P  C2001 10 14.26513 01 35 07.36 +15 18 18.7          20.3        704
     K01TA3P  C2001 10 14.28134 01 35 06.21 +15 18 07.6          20.0        704
     K01TA3P  C2001 10 14.31266 01 35 04.19 +15 17 46.9          19.8        704
     K01TA3P  C2001 10 19.32012 01 29 47.40 +14 17 02.9          19.6        644
     K01TA3P  C2001 10 19.34258 01 29 45.76 +14 16 44.7          19.4        644
     K01TA3P  C2001 10 19.36374 01 29 44.25 +14 16 28.1          19.5        644
     K01TA3P  C2001 10 19.86808 01 29 11.50 +14 09 41.9                      557
     K01TA3P  C2001 10 19.87801 01 29 10.73 +14 09 34.6                      557
     K01TA3P  C2001 10 19.89024 01 29 09.85 +14 09 24.9                      557
     K01TA3P  C2001 10 19.89970 01 29 09.14 +14 09 17.9          18.7 R      046
     K01TA3P  C2001 10 19.90144 01 29 09.05 +14 09 16.6          18.8 R      046
     K01TA3P  C2001 10 19.90345 01 29 08.91 +14 09 14.9          18.8 R      046
     K01TA3P  C2001 10 19.94514 01 29 05.91 +14 08 41.2                      557
     K01TA3P  C2001 10 20.44252 01 28 31.82 +14 02 03.9          19.5        644
     K01TA3P  C2001 10 20.46370 01 28 30.31 +14 01 46.4          19.3        644
     K01TA3P  C2001 10 20.48493 01 28 28.83 +14 01 28.7          19.6        644
     K01TA3P  C2001 10 21.25124 01 27 38.21 +13 51 00.6          18.9        704
     K01TA3P  C2001 10 21.27633 01 27 36.35 +13 50 40.5          19.5        704
     K01TA3P  C2001 10 21.29396 01 27 35.03 +13 50 24.7          19.7        704
     K01TA3P  C2001 10 21.31039 01 27 33.81 +13 50 11.7          19.4        704
     K01TA3P  C2001 10 21.32701 01 27 32.60 +13 49 58.0          19.3        704

Observer details:
046 Klet.  Observers J. Ticha, M. Tichy.  0.57-m f/5.2 reflector + CCD.
557 Ondrejov.  Observers P. Pravec, P. Kusnirak.  0.65-m f/3.6 reflector + CCD.
644 Palomar Mountain/NEAT.  Observers E. F. Helin, S. Pravdo, K. Lawrence,
    M. Hicks, E. Hovland, T. Bickler, J. Schroeder, L. Scherr, R. Thicksten,
    A. Deetz.  1.2-m Schmidt + CCD.
704 Lincoln Laboratory ETS, New Mexico.  Observers M. Blythe, F. Shelly,
    M. Bezpalko, R. Huber, L. Manguso, S. Adams, J. Piscitelli.  Measurers
    J. Stuart, R. Sayer, J. B. Evans, H. Viggh.  1.0-m f/2.15 reflector + CCD.

Orbital elements:
2001 TP103
Epoch 2001 Oct. 18.0 TT = JDT 2452200.5                 Spahr
M 316.33466              (2000.0)            P               Q
n   0.41015868     Peri.  242.56469     -0.29067457     -0.95509083
a   1.7940510      Node   224.45949     +0.90431371     -0.25458145
e   0.3566714      Incl.    4.71155     +0.31260999     -0.15162383
P   2.40           H   19.2           G   0.15
From 22 observations 2001 Oct. 14-21.

Ephemeris:
2001 TP103               a,e,i = 1.79, 0.36, 5                   q = 1.1542
Date    TT    R. A. (2000) Decl.     Delta      r     Elong.  Phase     V
2001 10 18    01 31.23   +14 34.1    0.495    1.490   175.0     3.4    18.9
2001 10 28    01 19.93   +12 11.1    0.455    1.442   167.9     8.3    18.9
2001 11 07    01 09.51   +09 29.2    0.433    1.395   154.9    17.5    19.0
2001 11 17    01 02.66   +06 54.9    0.425    1.350   142.4    26.5    19.2
2001 11 27    01 01.39   +04 52.3    0.427    1.308   131.2    34.6    19.4
2001 12 07    01 06.40   +03 34.3    0.435    1.269   121.7    41.4    19.5
2001 12 17    01 17.59   +03 02.8    0.446    1.234   113.9    46.8    19.7
2001 12 27    01 34.51   +03 14.9    0.458    1.205   107.7    51.1    19.8
2002 01 06    01 56.50   +04 03.2    0.470    1.181   103.0    54.2    19.9
2002 01 16    02 23.02   +05 20.4    0.482    1.165    99.5    56.4    20.0
2002 01 26    02 53.62   +06 58.1    0.495    1.156    97.1    57.7    20.1
2002 02 05    03 27.76   +08 46.4    0.510    1.155    95.8    58.2    20.1
2002 02 15    04 04.89   +10 35.4    0.529    1.161    95.1    57.9    20.2
2002 02 25    04 44.34   +12 14.3    0.554    1.176    95.0    57.0    20.3
2002 03 07    05 25.14   +13 32.9    0.587    1.197    95.1    55.6    20.5
2002 03 17    06 06.28   +14 24.1    0.629    1.225    95.3    54.0    20.6
2002 03 27    06 46.81   +14 44.1    0.681    1.258    95.3    52.2    20.8
2002 04 06    07 25.83   +14 32.9    0.743    1.296    94.9    50.3    21.0
2002 04 16    08 02.82   +13 53.6    0.816    1.337    94.1    48.4    21.2
2002 04 26    08 37.53   +12 50.5    0.899    1.382    92.8    46.7    21.4
2002 05 06    09 09.90   +11 28.7    0.991    1.428    91.2    44.9    21.7
2002 05 16    09 40.09   +09 52.8    1.092    1.476    89.1    43.2    21.9
2002 05 26    10 08.34   +08 06.6    1.201    1.525    86.6    41.5    22.1

Timothy B. Spahr             (C) Copyright 2001 MPC           M.P.E.C. 2001-U34

Read MPEC 2001-U33 Read MPEC 2001-U35


Our Web policy. Index to the CBAT/MPC/ICQ pages.


Valid HTML 4.01!